SPACEBEE-90 (48947 NORAD) Tracking and Keplerian Element Data

This shows tracking and keplerian element data for the satellite.

Feedback or suggestion? Click here.




ElementValue
Catalog48947
NameSPACEBEE-90
Epoch Orbit1677
Epoch Day287.6400616
Epoch Year2021
RAAN55.0994
Inclination97.5205
Eccentricity0.0016944
Argument of Perigee229.8146
Mean Anonmoly130.1604
Mean Motion15.15029585
Decay Rate8.127E-05
L11 48947U 21059BW 21287.64006160 .00008127 00000-0 43681-3 0 9995
L22 48947 97.5205 55.0994 0016944 229.8146 130.1604 15.15029585 16777

Live tracking and technical data element details for SPACEBEE-90 (NORAD 48947). SPACEBEE-90 can be tracked NOW for your location showing map with azimuth and elevation plus other details from your city location.

Track the satellite on the map from your city or location and see movement details for azimuth, elevation, latitude, longitude, range, height, and movement on the map or in text.







IsCatalogInMostPopularTable: catalog: 48947, numindb: 24
Update: records affected: 1



GetName: 48947 SPACEBEE-90

Hit Count: updated at: Tue, 19 Oct 2021 07:44:23 GMT